[[{"header":{"parameterUnit":"m.s-1","parameterCategory":1,"la1":30.2991,"la2":30.254,"lo1":-89.0895,"lo2":-89.0444,"dy":0.0017,"dx":0.0017,"nx":28,"ny":28,"refTime":"2024-07-26T09:00:00:Z","depth":0,"parameterNumber":2,"parameterNumberName":"U-component_of_WINDS"},"data":[0,0,0,0,0,0,0,0,0,0,0,0,0,0,0,0,0,0,0,0,0,0,0,0,0,0,0,0,0,0,0,0,0,0,0,0,0,0,0,0,0,0,0,0,0,0,0,0,0,0,0,0,0,0,0,0,0,0,-0.7267,-0.7266,0,-0.7207,-0.7206,-0.7206,-0.7182,-0.7182,-0.7182,-0.7182,-0.7119,-0.7117,-0.7115,0,0,0,0,0,0,0,0,0,0,0,0,0,-0.736,-0.7358,-0.7267,-0.7266,-0.7265,-0.7207,-0.7206,-0.7205,-0.7182,-0.7182,-0.7182,-0.7183,-0.7119,-0.7117,-0.7115,0,0,0,0,0,0,0,0,0,0,0,0,0,-0.7311,-0.7357,-0.7267,-0.7247,-0.7244,-0.7207,-0.7206,-0.7205,-0.7182,-0.7182,-0.7182,-0.7183,-0.712,-0.7117,-0.7115,-0.7092,0,0,-0.7106,-0.7105,0,0,0,0,0,0,0,0,-0.7314,-0.7308,-0.725,-0.7248,-0.7245,-0.7202,-0.7215,-0.7167,-0.7182,-0.7206,-0.7182,-0.7183,-0.7146,-0.7141,-0.7129,-0.709,-0.7087,-0.7106,-0.7104,-0.7103,-0.7102,0,0,0,0,0,0,0,-0.7318,-0.731,-0.7243,-0.725,-0.7247,-0.724,-0.7234,-0.7206,-0.7175,-0.7203,-0.7202,-0.7195,-0.7145,-0.7132,-0.7128,-0.7086,-0.7106,-0.7103,-0.7102,-0.7101,-0.7025,-0.7025,0,0,0,0,0,0,-0.7324,-0.7313,-0.7245,-0.7241,-0.7281,-0.7238,-0.7231,-0.7216,-0.7175,-0.7169,-0.7195,-0.7194,-0.7137,-0.7131,-0.7125,-0.7097,-0.7103,-0.71,-0.7099,-0.7025,-0.7025,-0.7025,0,0,0,0,0,0,-0.7327,-0.7319,-0.7247,-0.7277,-0.7267,-0.7236,-0.722,-0.7214,-0.7202,-0.7169,-0.7163,-0.7188,-0.7137,-0.7129,-0.7101,-0.7094,-0.7099,-0.7097,-0.7026,-0.7025,-0.7025,-0.704,0,0,0,0,0,0,-0.7329,-0.732,-0.7311,-0.7277,-0.7266,-0.7225,-0.7219,-0.7213,-0.7197,-0.7196,-0.7161,-0.7155,-0.7136,-0.7105,-0.7098,-0.7091,-0.7094,-0.7026,-0.7026,-0.7025,-0.704,-0.704,-0.704,0,0,0,0,0,-0.7333,-0.7317,-0.7311,-0.7303,-0.7255,-0.7224,-0.7218,-0.7197,-0.7197,-0.7188,-0.7167,-0.7156,-0.7096,-0.7103,-0.7095,-0.7086,-0.7027,-0.7026,-0.7025,-0.704,-0.704,-0.704,0,0,0,0,0,0,-0.7351,-0.7312,-0.7305,-0.7278,-0.7255,-0.722,-0.7209,-0.7198,-0.7174,-0.7173,-0.7148,-0.7141,-0.7115,-0.7097,-0.7105,-0.7062,-0.7061,-0.7058,-0.7075,-0.7074,-0.7075,-0.7079,-0.7092,0,0,0,0,0,-0.7352,-0.7331,-0.7298,-0.7277,-0.7266,-0.724,-0.7225,-0.7212,-0.7186,-0.7176,-0.7153,-0.7128,-0.7104,-0.7088,-0.7064,-0.7037,-0.7029,-0.7027,-0.7028,-0.7028,-0.7026,-0.701,-0.7009,-0.7022,-0.7022,-0.7022,0,0,-0.7353,-0.733,-0.7318,-0.728,-0.7261,-0.7239,-0.7231,-0.7209,-0.7192,-0.7172,-0.7145,-0.7127,-0.7098,-0.707,-0.7057,-0.7055,-0.7021,-0.7027,-0.7027,-0.7025,-0.701,-0.7008,-0.7007,-0.7022,-0.7022,-0.7022,0,0,-0.7345,-0.7325,-0.7306,-0.7286,-0.7257,-0.724,-0.7235,-0.7202,-0.719,-0.7162,-0.7147,-0.7127,-0.7085,-0.7065,-0.705,-0.7034,-0.7023,-0.7027,-0.7027,-0.7013,-0.7012,-0.7011,-0.7005,-0.7004,-0.7025,-0.7025,-0.7025,0,-0.735,-0.7317,-0.7297,-0.7275,-0.7259,-0.7241,-0.7221,-0.7203,-0.7168,-0.7157,-0.7155,-0.7103,-0.7082,-0.705,-0.7047,-0.7035,-0.7028,-0.7031,-0.7014,-0.7013,-0.7011,-0.7006,-0.7004,-0.7026,-0.7026,-0.7026,-0.7026,0,-0.7325,-0.7303,-0.729,-0.7257,-0.724,-0.7219,-0.7195,-0.718,-0.7168,-0.7151,-0.7122,-0.7097,-0.7067,-0.7058,-0.7046,-0.7024,-0.7024,-0.7019,-0.7016,-0.7011,-0.7005,-0.7003,-0.7027,-0.7027,-0.7027,-0.7026,0,0,-0.7325,-0.7282,-0.7278,-0.7262,-0.7229,-0.7211,-0.719,-0.7162,-0.7149,-0.7125,-0.7106,-0.7072,-0.7067,-0.7049,-0.7034,-0.7022,-0.7011,-0.7018,-0.7017,-0.7017,-0.6986,-0.699,-0.6988,-0.7004,-0.7004,-0.7004,-0.6988,0,-0.7312,-0.7274,-0.7255,-0.7224,-0.7203,-0.7186,-0.7168,-0.7145,-0.7128,-0.7108,-0.7089,-0.7065,-0.706,-0.705,-0.7036,-0.7016,-0.7005,-0.7016,-0.6986,-0.6985,-0.6994,-0.6985,-0.6989,-0.6976,-0.6986,-0.6986,-0.6985,0,-0.7292,-0.7269,-0.7236,-0.7206,-0.7196,-0.718,-0.7153,-0.7133,-0.7107,-0.7096,-0.7077,-0.7063,-0.7039,-0.7039,-0.7006,-0.7015,-0.7001,-0.6989,-0.6988,-0.6984,-0.6985,-0.698,-0.6971,-0.6969,-0.6982,-0.6982,-0.6982,0,-0.7295,-0.7256,-0.7231,-0.7219,-0.7183,-0.7172,-0.7156,-0.713,-0.7115,-0.7091,-0.7081,-0.7054,-0.704,-0.7019,-0.6999,-0.7001,-0.6968,-0.6966,-0.6957,-0.6958,-0.695,-0.6951,-0.6939,-0.6943,-0.6943,-0.6943,-0.6943,0,-0.7282,-0.7263,-0.7233,-0.7217,-0.7195,-0.7174,-0.7152,-0.7135,-0.7113,-0.7094,-0.7078,-0.706,-0.7034,-0.7013,-0.6997,-0.6972,-0.6965,-0.6955,-0.6951,-0.6956,-0.6958,-0.6947,-0.6947,-0.6942,-0.6942,-0.6942,-0.6942,0,-0.7282,-0.7261,-0.7233,-0.7202,-0.7193,-0.7178,-0.7151,-0.7136,-0.7119,-0.7095,-0.7088,-0.7061,-0.7035,-0.7013,-0.6979,-0.6968,-0.6942,-0.6937,-0.6951,-0.6949,-0.6942,-0.6943,-0.6921,-0.6917,-0.6925,-0.6925,-0.6925,0,-0.7275,-0.726,-0.7227,-0.7213,-0.7198,-0.7177,-0.7161,-0.7139,-0.7124,-0.7093,-0.7081,-0.7055,-0.7033,-0.6993,-0.697,-0.6944,-0.6938,-0.6932,-0.6934,-0.694,-0.6937,-0.6939,-0.6937,-0.6932,-0.6932,-0.6932,-0.6932,0,-0.7265,-0.7255,-0.7233,-0.7208,-0.719,-0.7169,-0.7147,-0.7137,-0.7111,-0.7094,-0.7069,-0.7051,-0.7017,-0.6991,-0.6963,-0.6946,-0.6935,-0.6932,-0.6929,-0.6934,-0.6943,-0.6938,-0.6951,-0.6933,-0.6933,-0.6933,-0.6933,-0.6933,-0.726,-0.7246,-0.7221,-0.7197,-0.7179,-0.7159,-0.7143,-0.7125,-0.7103,-0.7074,-0.7063,-0.7036,-0.7011,-0.6972,-0.6956,-0.6935,-0.6932,-0.6928,-0.6926,-0.6925,-0.6926,-0.6947,-0.6929,-0.6929,-0.6929,-0.6929,-0.6929,0,-0.7249,-0.7232,-0.7211,-0.7181,-0.7163,-0.7155,-0.713,-0.7115,-0.7093,-0.707,-0.7049,-0.7019,-0.6994,-0.697,-0.6943,-0.6931,-0.6925,-0.6925,-0.6925,-0.6921,-0.693,-0.6935,-0.693,-0.693,-0.693,-0.693,-0.693,-0.693,-0.7241,-0.7217,-0.7204,-0.7171,-0.7154,-0.7128,-0.7115,-0.7097,-0.7079,-0.7047,-0.7026,-0.7011,-0.6987,-0.6959,-0.6936,-0.6929,-0.692,-0.6921,-0.6913,-0.6921,-0.6921,-0.6921,-0.6926,-0.6919,-0.6919,-0.6906,-0.6906,-0.6906]},{"header":{"parameterUnit":"m.s-1","parameterCategory":1,"la1":30.2991,"la2":30.254,"lo1":-89.0895,"lo2":-89.0444,"dy":0.0017,"dx":0.0017,"nx":28,"ny":28,"refTime":"2024-07-26T09:00:00:Z","depth":0,"parameterNumber":3,"parameterNumberName":"V-component_of_WINDS"},"data":[0,0,0,0,0,0,0,0,0,0,0,0,0,0,0,0,0,0,0,0,0,0,0,0,0,0,0,0,0,0,0,0,0,0,0,0,0,0,0,0,0,0,0,0,0,0,0,0,0,0,0,0,0,0,0,0,0,0,3.3392,3.3393,0,3.3495,3.3496,3.3497,3.3562,3.3562,3.3563,3.3563,3.3663,3.3665,3.3668,0,0,0,0,0,0,0,0,0,0,0,0,0,3.3246,3.3249,3.3391,3.3393,3.3394,3.3494,3.3496,3.3497,3.3562,3.3562,3.3563,3.3563,3.3662,3.3665,3.3668,0,0,0,0,0,0,0,0,0,0,0,0,0,3.3325,3.3249,3.3391,3.3438,3.3444,3.3494,3.3496,3.3498,3.3562,3.3562,3.3563,3.3563,3.3661,3.3665,3.3668,3.3678,0,0,3.3679,3.368,0,0,0,0,0,0,0,0,3.332,3.333,3.343,3.3435,3.3441,3.3516,3.3482,3.3558,3.3561,3.3517,3.3563,3.3564,3.3613,3.3621,3.3639,3.3683,3.3687,3.3679,3.3681,3.3683,3.3684,0,0,0,0,0,0,0,3.3315,3.3326,3.3432,3.3432,3.3438,3.3453,3.3465,3.3496,3.356,3.3521,3.3526,3.3537,3.3616,3.3635,3.3642,3.3689,3.3679,3.3682,3.3684,3.3686,3.3748,3.3747,0,0,0,0,0,0,3.3303,3.3321,3.3429,3.3435,3.3381,3.3455,3.3469,3.3491,3.356,3.3571,3.3537,3.354,3.3629,3.3637,3.3645,3.3663,3.3683,3.3686,3.3688,3.3748,3.3747,3.3747,0,0,0,0,0,0,3.3299,3.3312,3.3425,3.338,3.3395,3.3457,3.3482,3.3493,3.3512,3.3572,3.3584,3.3544,3.363,3.364,3.367,3.3667,3.3688,3.3691,3.3748,3.3748,3.3747,3.3696,0,0,0,0,0,0,3.3295,3.331,3.3315,3.3379,3.3397,3.3449,3.3482,3.3495,3.3519,3.3524,3.3583,3.3593,3.3631,3.3665,3.3674,3.3672,3.3693,3.3749,3.3748,3.3747,3.3698,3.3694,3.369,0,0,0,0,0,3.3289,3.3295,3.3315,3.3328,3.3406,3.3449,3.3459,3.3504,3.3518,3.3523,3.3562,3.3591,3.3666,3.3667,3.3678,3.3677,3.3749,3.3748,3.3747,3.37,3.3695,3.369,0,0,0,0,0,0,3.3227,3.3305,3.3328,3.3355,3.3395,3.346,3.3468,3.3497,3.3532,3.3535,3.3589,3.3601,3.3626,3.3655,3.3655,3.3691,3.3711,3.3712,3.3671,3.3667,3.3663,3.3655,3.3696,0,0,0,0,0,3.3217,3.3247,3.3312,3.333,3.3349,3.3405,3.3425,3.3457,3.35,3.3517,3.3558,3.3597,3.363,3.365,3.3683,3.3703,3.3717,3.3708,3.3704,3.37,3.37,3.3714,3.371,3.3744,3.3744,3.3744,0,0,3.3195,3.3241,3.3257,3.3319,3.3354,3.3382,3.3419,3.3447,3.3469,3.352,3.3552,3.3583,3.3631,3.3656,3.3669,3.3681,3.3694,3.3699,3.3695,3.3697,3.3712,3.3709,3.3706,3.3743,3.3743,3.3743,0,0,3.3171,3.3209,3.3229,3.3263,3.3317,3.3354,3.3358,3.3419,3.3443,3.3476,3.3515,3.3541,3.3596,3.3628,3.3652,3.3642,3.3669,3.3651,3.3628,3.3641,3.3638,3.3636,3.3633,3.3631,3.3651,3.3651,3.365,0,3.3137,3.3184,3.3234,3.3261,3.3287,3.3338,3.3358,3.3388,3.3448,3.3465,3.3477,3.3548,3.3583,3.3618,3.3615,3.3633,3.3639,3.3644,3.3635,3.3633,3.3632,3.363,3.3628,3.3648,3.3648,3.3649,3.3649,0,3.3139,3.3171,3.318,3.324,3.3267,3.329,3.3343,3.3364,3.3394,3.3429,3.3462,3.3506,3.355,3.356,3.3589,3.3599,3.3604,3.3625,3.3646,3.3626,3.3624,3.3623,3.3644,3.3645,3.3646,3.3647,0,0,3.3077,3.3167,3.3169,3.3197,3.326,3.3285,3.331,3.3355,3.3372,3.3412,3.3434,3.348,3.3501,3.3527,3.356,3.3571,3.3561,3.3591,3.3592,3.3584,3.3575,3.3559,3.3557,3.358,3.358,3.358,3.3571,0,3.3063,3.3113,3.316,3.3192,3.3222,3.3271,3.3293,3.3333,3.3367,3.3397,3.3434,3.3466,3.349,3.3507,3.352,3.3559,3.3559,3.356,3.36,3.3601,3.3587,3.3556,3.354,3.3529,3.3571,3.3571,3.3571,0,3.3052,3.3093,3.3128,3.319,3.3204,3.3223,3.3269,3.3297,3.3343,3.3367,3.3398,3.3433,3.3461,3.348,3.3519,3.3518,3.3538,3.3559,3.356,3.3565,3.3584,3.3561,3.3527,3.3526,3.357,3.357,3.357,0,3.3004,3.3067,3.3097,3.312,3.3192,3.3205,3.3235,3.3283,3.3307,3.3346,3.3362,3.3403,3.3426,3.3456,3.3501,3.351,3.3536,3.3557,3.3556,3.3555,3.3559,3.3558,3.3528,3.3571,3.3571,3.3571,3.3571,0,3.2982,3.3003,3.3077,3.3095,3.3119,3.3173,3.3195,3.3229,3.3271,3.3297,3.3341,3.3363,3.3421,3.345,3.3485,3.3513,3.3522,3.3542,3.3551,3.3538,3.3536,3.3551,3.3553,3.357,3.357,3.357,3.357,0,3.2933,3.2983,3.302,3.3086,3.3103,3.3118,3.3174,3.3193,3.3231,3.3262,3.3273,3.333,3.3367,3.3415,3.3466,3.349,3.3513,3.3527,3.3498,3.3503,3.3499,3.3499,3.3478,3.3478,3.352,3.352,3.3519,0,3.2916,3.2933,3.3002,3.3023,3.3053,3.3086,3.3112,3.3165,3.3189,3.3245,3.3257,3.3298,3.3334,3.339,3.3436,3.3475,3.3491,3.3481,3.3497,3.3484,3.3491,3.3489,3.3492,3.3476,3.3475,3.3475,3.3474,0,3.288,3.2905,3.2942,3.2987,3.3017,3.3055,3.3095,3.3109,3.317,3.3196,3.3235,3.3263,3.3316,3.3356,3.3402,3.3432,3.3463,3.3469,3.3471,3.3458,3.3441,3.3451,3.3487,3.3469,3.347,3.347,3.347,3.3471,3.2847,3.2865,3.2917,3.2956,3.2992,3.3029,3.3051,3.3092,3.3126,3.3175,3.3204,3.3242,3.3289,3.3355,3.3384,3.3414,3.3425,3.3428,3.3429,3.3428,3.3425,3.3436,3.3422,3.3422,3.3422,3.3423,3.3423,0,3.2814,3.2851,3.2886,3.2942,3.2973,3.3002,3.3047,3.3071,3.3105,3.3147,3.3182,3.3227,3.3266,3.3316,3.3358,3.3373,3.3388,3.3382,3.3381,3.3388,3.3411,3.3406,3.3369,3.3369,3.3369,3.3369,3.3369,3.3369,3.2801,3.2833,3.2864,3.2915,3.2951,3.299,3.3014,3.3048,3.3082,3.3131,3.3165,3.3198,3.3243,3.3289,3.3326,3.334,3.3353,3.3343,3.3361,3.3381,3.3386,3.3391,3.3386,3.3345,3.3345,3.3335,3.3335,3.3335]}]]